• In Deutschland
  • Länderverzeichnis
  • Für 7 Tage
  • Wassertemperatur
  • Satellitenkarten
  • Wetterkarte
  • Widgets
  • user-avatar
    Anmelden

    Stündliche Wetter Lautaro

    Heute, 21 Februar, Mittwoch

    Zeit Temperatur Niederschläge Wind Luftdruck Luftfeuchtigkeit
    00:00 +13°C° 0 mm 1 m/S 740 mmHg 81%
    01:00 +11°C° 0 mm 0 m/S 740 mmHg 83%
    02:00 +11°C° 0 mm 0 m/S 740 mmHg 83%
    03:00 +12°C° 0 mm 1 m/S 740 mmHg 84%
    04:00 +11°C° 0 mm 1 m/S 740 mmHg 85%
    05:00 +12°C° 0 mm 0 m/S 740 mmHg 80%
    06:00 +13°C° 0 mm 0 m/S 740 mmHg 75%
    07:00 +14°C° 0 mm 0 m/S 740 mmHg 70%
    08:00 +17°C° 0 mm 0 m/S 741 mmHg 60%
    09:00 +22°C° 0 mm 1 m/S 741 mmHg 49%
    10:00 +25°C° 0 mm 1 m/S 741 mmHg 38%
    11:00 +26°C° 0 mm 1 m/S 741 mmHg 34%
    12:00 +27°C° 0 mm 2 m/S 741 mmHg 29%
    13:00 +28°C° 0 mm 2 m/S 740 mmHg 25%
    14:00 +27°C° 0,2 mm 2 m/S 740 mmHg 35%
    15:00 +25°C° 0,2 mm 3 m/S 740 mmHg 44%
    16:00 +24°C° 0,2 mm 3 m/S 740 mmHg 54%
    17:00 +21°C° 0,7 mm 2 m/S 740 mmHg 65%
    18:00 +19°C° 0,7 mm 2 m/S 741 mmHg 77%
    19:00 +18°C° 0,7 mm 1 m/S 741 mmHg 88%
    20:00 +18°C° 0,1 mm 1 m/S 741 mmHg 90%
    21:00 +18°C° 0,1 mm 1 m/S 741 mmHg 91%
    22:00 +16°C° 0,1 mm 1 m/S 741 mmHg 92%
    23:00 +16°C° 0 mm 1 m/S 741 mmHg 93%

    Morgen, 22 Februar, Donnerstag

    Zeit Temperatur Niederschläge Wind Luftdruck Luftfeuchtigkeit
    00:00 +16°C° 0 mm 1 m/S 741 mmHg 93%
    01:00 +15°C° 0 mm 1 m/S 741 mmHg 94%
    02:00 +15°C° 0 mm 1 m/S 740 mmHg 94%
    03:00 +15°C° 0 mm 1 m/S 740 mmHg 93%
    04:00 +15°C° 0 mm 1 m/S 740 mmHg 93%
    05:00 +16°C° 0 mm 1 m/S 740 mmHg 91%
    06:00 +16°C° 0 mm 1 m/S 740 mmHg 89%
    07:00 +18°C° 0 mm 1 m/S 740 mmHg 87%
    08:00 +19°C° 0,1 mm 1 m/S 740 mmHg 82%
    09:00 +21°C° 0,1 mm 1 m/S 740 mmHg 77%
    10:00 +22°C° 0,1 mm 1 m/S 740 mmHg 71%
    11:00 +22°C° 0,2 mm 1 m/S 740 mmHg 74%
    12:00 +22°C° 0,2 mm 1 m/S 739 mmHg 76%
    13:00 +22°C° 0,2 mm 1 m/S 739 mmHg 78%
    14:00 +21°C° 1 mm 1 m/S 739 mmHg 83%
    15:00 +20°C° 1 mm 1 m/S 739 mmHg 88%
    16:00 +19°C° 1 mm 1 m/S 739 mmHg 93%
    17:00 +19°C° 2,2 mm 1 m/S 740 mmHg 94%
    18:00 +18°C° 2,2 mm 1 m/S 740 mmHg 95%
    19:00 +16°C° 2,2 mm 1 m/S 741 mmHg 96%
    20:00 +16°C° 1,8 mm 1 m/S 741 mmHg 96%
    21:00 +16°C° 1,8 mm 1 m/S 741 mmHg 97%
    22:00 +16°C° 1,8 mm 1 m/S 741 mmHg 97%
    23:00 +15°C° 0,8 mm 1 m/S 740 mmHg 97%

    übermorgen, 23 Februar, Freitag

    Zeit Temperatur Niederschläge Wind Luftdruck Luftfeuchtigkeit
    00:00 +15°C° 0,8 mm 1 m/S 740 mmHg 97%
    01:00 +15°C° 0,8 mm 1 m/S 740 mmHg 97%
    02:00 +14°C° 0,1 mm 1 m/S 740 mmHg 96%
    03:00 +14°C° 0,1 mm 1 m/S 740 mmHg 96%
    04:00 +14°C° 0,1 mm 1 m/S 740 mmHg 96%
    05:00 +14°C° 0 mm 1 m/S 740 mmHg 95%
    06:00 +14°C° 0 mm 1 m/S 740 mmHg 94%
    07:00 +15°C° 0 mm 1 m/S 740 mmHg 92%
    08:00 +18°C° 0 mm 1 m/S 740 mmHg 81%
    09:00 +20°C° 0 mm 1 m/S 740 mmHg 70%
    10:00 +21°C° 0 mm 2 m/S 740 mmHg 58%
    11:00 +23°C° 0 mm 2 m/S 740 mmHg 52%
    12:00 +25°C° 0 mm 2 m/S 740 mmHg 47%
    13:00 +26°C° 0 mm 2 m/S 740 mmHg 41%
    14:00 +27°C° 0 mm 2 m/S 739 mmHg 40%
    15:00 +27°C° 0 mm 2 m/S 739 mmHg 40%
    16:00 +28°C° 0 mm 2 m/S 739 mmHg 39%
    17:00 +25°C° 0 mm 2 m/S 739 mmHg 47%
    18:00 +23°C° 0 mm 2 m/S 739 mmHg 55%
    19:00 +21°C° 0 mm 1 m/S 739 mmHg 63%
    20:00 +19°C° 0 mm 1 m/S 739 mmHg 67%
    21:00 +18°C° 0 mm 1 m/S 739 mmHg 71%
    22:00 +16°C° 0 mm 1 m/S 739 mmHg 75%
    23:00 +16°C° 0 mm 1 m/S 739 mmHg 76%

    24 Februar, Samstag

    Zeit Temperatur Niederschläge Wind Luftdruck Luftfeuchtigkeit
    00:00 +15°C° 0 mm 1 m/S 739 mmHg 76%
    01:00 +15°C° 0 mm 1 m/S 738 mmHg 77%
    02:00 +15°C° 0 mm 1 m/S 738 mmHg 77%
    03:00 +14°C° 0 mm 1 m/S 738 mmHg 78%
    04:00 +14°C° 0 mm 1 m/S 738 mmHg 79%
    05:00 +14°C° 0 mm 0 m/S 738 mmHg 75%
    06:00 +15°C° 0 mm 0 m/S 739 mmHg 71%
    07:00 +16°C° 0 mm 0 m/S 739 mmHg 68%
    08:00 +20°C° 0 mm 0 m/S 739 mmHg 58%
    09:00 +23°C° 0 mm 0 m/S 739 mmHg 49%
    10:00 +26°C° 0 mm 0 m/S 739 mmHg 39%
    11:00 +29°C° 0 mm 1 m/S 739 mmHg 37%
    12:00 +30°C° 0 mm 1 m/S 739 mmHg 34%
    13:00 +31°C° 0 mm 2 m/S 739 mmHg 32%
    14:00 +30°C° 0 mm 2 m/S 739 mmHg 33%
    15:00 +30°C° 0 mm 2 m/S 739 mmHg 34%
    16:00 +29°C° 0 mm 2 m/S 739 mmHg 35%
    17:00 +26°C° 0 mm 2 m/S 739 mmHg 45%
    18:00 +23°C° 0 mm 2 m/S 739 mmHg 56%
    19:00 +19°C° 0 mm 2 m/S 740 mmHg 66%
    20:00 +19°C° 0 mm 1 m/S 740 mmHg 73%
    21:00 +16°C° 0 mm 1 m/S 741 mmHg 79%
    22:00 +15°C° 0 mm 1 m/S 741 mmHg 85%
    23:00 +15°C° 0 mm 1 m/S 741 mmHg 87%

    25 Februar, Sonntag

    Zeit Temperatur Niederschläge Wind Luftdruck Luftfeuchtigkeit
    00:00 +14°C° 0 mm 1 m/S 741 mmHg 89%
    01:00 +13°C° 0 mm 0 m/S 741 mmHg 91%
    02:00 +14°C° 0 mm 1 m/S 740 mmHg 91%
    03:00 +13°C° 0 mm 1 m/S 740 mmHg 91%
    04:00 +13°C° 0 mm 1 m/S 740 mmHg 91%
    05:00 +14°C° 0 mm 1 m/S 740 mmHg 86%
    06:00 +14°C° 0 mm 0 m/S 741 mmHg 81%
    07:00 +15°C° 0 mm 0 m/S 741 mmHg 76%
    08:00 +20°C° 0 mm 1 m/S 741 mmHg 66%
    09:00 +23°C° 0 mm 1 m/S 741 mmHg 55%
    10:00 +26°C° 0 mm 2 m/S 741 mmHg 45%
    11:00 +27°C° 0 mm 2 m/S 740 mmHg 41%
    12:00 +28°C° 0 mm 2 m/S 740 mmHg 37%
    13:00 +30°C° 0 mm 2 m/S 739 mmHg 33%
    14:00 +29°C° 0 mm 2 m/S 739 mmHg 32%
    15:00 +29°C° 0 mm 3 m/S 739 mmHg 31%
    16:00 +29°C° 0 mm 3 m/S 739 mmHg 31%
    17:00 +25°C° 0 mm 2 m/S 739 mmHg 38%
    18:00 +21°C° 0 mm 2 m/S 739 mmHg 45%
    19:00 +19°C° 0 mm 1 m/S 739 mmHg 52%
    20:00 +18°C° 0 mm 1 m/S 739 mmHg 60%
    21:00 +16°C° 0 mm 1 m/S 740 mmHg 68%
    22:00 +15°C° 0 mm 1 m/S 740 mmHg 75%
    23:00 +15°C° 0 mm 1 m/S 739 mmHg 79%

    26 Februar, Montag

    Zeit Temperatur Niederschläge Wind Luftdruck Luftfeuchtigkeit
    00:00 +15°C° 0 mm 1 m/S 739 mmHg 83%
    01:00 +14°C° 0 mm 1 m/S 739 mmHg 86%
    02:00 +14°C° 0 mm 1 m/S 739 mmHg 87%
    03:00 +14°C° 0 mm 1 m/S 739 mmHg 88%
    04:00 +14°C° 0 mm 1 m/S 739 mmHg 89%
    05:00 +15°C° 0 mm 1 m/S 739 mmHg 85%
    06:00 +16°C° 0 mm 1 m/S 739 mmHg 82%
    07:00 +18°C° 0 mm 1 m/S 739 mmHg 78%
    08:00 +20°C° 0 mm 1 m/S 739 mmHg 67%
    09:00 +23°C° 0 mm 1 m/S 739 mmHg 56%
    10:00 +26°C° 0 mm 1 m/S 739 mmHg 45%
    11:00 +27°C° 0 mm 2 m/S 739 mmHg 41%
    12:00 +29°C° 0 mm 2 m/S 738 mmHg 38%
    13:00 +30°C° 0 mm 2 m/S 738 mmHg 34%
    14:00 +30°C° 0 mm 2 m/S 738 mmHg 35%
    15:00 +29°C° 0 mm 2 m/S 738 mmHg 37%
    16:00 +29°C° 0 mm 2 m/S 737 mmHg 38%
    17:00 +26°C° 0 mm 2 m/S 738 mmHg 49%
    18:00 +23°C° 0 mm 2 m/S 738 mmHg 60%
    19:00 +21°C° 0 mm 1 m/S 738 mmHg 71%
    20:00 +19°C° 0 mm 1 m/S 738 mmHg 77%
    21:00 +18°C° 0 mm 1 m/S 738 mmHg 82%
    22:00 +16°C° 0 mm 1 m/S 738 mmHg 87%
    23:00 +16°C° 0 mm 1 m/S 738 mmHg 87%
    Mehr zeigen